Regional Weather Roundup
Issued by NWS

Home | Current Version | Previous Version | Text Only | Print | Product List | Glossary On
Versions: 1 2 3 4 5 6 7 8 9 10 11 12 13 14 15 16 17 18 19 20 21 22 23 24 25 26 27 28 29 30 31 32 33 34 35 36 37 38 39 40 41 42 43 44 45 46 47 48 49 50
000
ASUS44 KFWD 230215
RWRTX
NORTH TEXAS HOURLY WEATHER ROUNDUP
NATIONAL WEATHER SERVICE FORT WORTH TX
900 PM CDT TUE JUL 22 2014

NOTE: "FAIR" INDICATES FEW OR NO CLOUDS BELOW 12,000 FEET WITH NO
SIGNIFICANT WEATHER AND/OR OBSTRUCTIONS TO VISIBILITY.

TXZ118-119-230300-
DALLAS/FORT WORTH METROPLEX

CITY           SKY/WX    TMP DP  RH WIND       PRES   REMARKS
DFW AIRPORT    FAIR      89  70  53 E12       30.03R HX  94
DALLAS LOVE    FAIR      89  71  55 E9        30.03R HX  95
FTW MEACHAM    FAIR      91  70  49 E8        30.03R HX  96
DAL-EXECUTIVE  FAIR      88  68  51 E7        30.04R HX  91
FTW-ALLIANCE   FAIR      86  69  56 E6        30.03R HX  90
FTW-NAS-JRB    FAIR      92  68  45 E10       30.06R HX  96
FTW-SPINKS     FAIR      88  69  54 E5        30.05R HX  92
ARLINGTON      FAIR      90  67  46 E7        30.03R HX  93
GRAND PRAIRIE  FAIR      89  65  45 E8        30.05R HX  90
ADDISON        CLEAR     88  68  51 E7        30.04R HX  91
LANCASTER      FAIR      84  69  60 E3        30.05R
$$

TXZ091>094-102>105-117-120-121-131>134-230300-
NORTH CENTRAL TEXAS

CITY           SKY/WX    TMP DP  RH WIND       PRES   REMARKS
SHRMAN/DENISON FAIR      84  71  64 E3        30.06S
GAINESVILLE    FAIR      85  71  62 E6        30.07S HX  90
BOWIE          FAIR      83  73  72 CALM      30.06R
BRIDGEPORT     FAIR      84  69  58 SE3       30.06S
DECATUR        FAIR      85  69  60 E6        30.06S
DENTON         FAIR      87  70  56 SE5       30.03S HX  92
MCKINNEY       FAIR      85  72  65 SE3       30.04S HX  91
GREENVILLE     FAIR      81  70  69 E3        30.04S
ROCKWALL       FAIR      84  71  66 E6        30.04R
TERRELL        FAIR      85  71  63 NE3       30.04S HX  90
WAXAHACHIE     FAIR      85  67  55 E3        30.05S
CLEBURNE       FAIR      88  72  58 E8        30.05S HX  94
GRANBURY       FAIR      91  67  45 E6        30.04S HX  95
$$

TXZ083>090-098>101-113>116-127>130-139>142-154-155-230300-
WESTERN NORTH TEXAS

CITY           SKY/WX    TMP DP  RH WIND       PRES   REMARKS
WICHITA FALLS  FAIR      84  69  60 SE7       30.04R
WF-KICKAPOO    FAIR      87  68  53 SE6       30.06R HX  91
VERNON         FAIR      90  65  43 SE7       30.06S HX  91
ABILENE        FAIR      91  66  43 SE7       30.07R HX  93
ABILENE-DYESS  FAIR      88  68  52 SE7       30.06R HX  91
BRECKENRIDGE   FAIR      92  61  34 SE7       30.04R HX  92
MINERAL WELLS  FAIR      89  69  51 E10       30.03R HX  93
STEPHENVILLE   FAIR      86  66  50 E5        30.08S
COMANCHE       FAIR      85  68  57 E6        30.06R
BROWNWOOD      FAIR      84  68  58 E8        30.05R
COLEMAN        FAIR      85  68  55 E5        30.06S
BRADY          CLEAR     86  66  51 E5        30.06S
$$

TXZ143>147-156>162-174-175-230300-
CENTRAL TEXAS

CITY           SKY/WX    TMP DP  RH WIND       PRES   REMARKS
WACO           MOCLDY    88  71  57 E7        30.01R HX  94
WACO-TSTC      CLEAR     90  70  51 E6        30.00  HX  95
WACO-MCGREGOR  FAIR      90  70  51 E8        30.02R HX  95
HILLSBORO      FAIR      86  68  55 E5        30.03S
CORSICANA      FAIR      84  72  67 E5        30.04R
MEXIA          FAIR      83  74  73 CALM      30.02R
HEARNE         FAIR      91  78  66 CALM      30.01R HX 105
CAMERON        FAIR      87  74  64 CALM      30.01R HX  95
TEMPLE         FAIR      84  68  58 E6        30.02R
KILLEEN        PTCLDY    90  70  51 E7        30.02R HX  95
KILLEEN-SKYLRK FAIR      88  68  51 SE6       30.01S HX  91
FORT HOOD      FAIR      90  69  50 E6        30.02R HX  94
GATESVILLE     FAIR      88  70  55 CALM      30.04R HX  92
HAMILTON       FAIR      86  68  53 E3        30.06R
LAMPASAS       FAIR      84  70  61 CALM      30.03S
$$

TXZ095>097-106>112-122>126-135>138-148>153-164>167-230300-
EAST TEXAS

CITY           SKY/WX    TMP DP  RH WIND       PRES   REMARKS
PARIS          FAIR      81  68  65 S5        30.06R
SULPHUR SPRNGS FAIR      82  69  66 E3        30.07S
CLARKSVILLE    FAIR      82  70  66 CALM      30.05S
MOUNT PLEASANT FAIR      80  68  67 CALM      30.06S
GILMER         FAIR      81  72  74 CALM      30.06S
MINEOLA        FAIR      79  73  83 CALM      30.05S
TYLER          FAIR      83  69  62 E3        30.04R
LONGVIEW       FAIR      78  71  79 CALM      30.04R
MARSHALL       FAIR      79  74  87 CALM      30.06R
ATHENS         FAIR      81  72  74 CALM      30.03R
JACKSONVILLE   FAIR      81  71  71 E3        30.07R
HENDERSON      FAIR      77  70  79 CALM      30.05S
NACOGDOCHES    FAIR      77  70  78 CALM      30.03S
LUFKIN         FAIR      82  73  74 CALM      30.02S
$$

SUPPLEMENTAL OBSERVATIONS (CENTRAL)

CITY           SKY/WX    TMP DP  RH WIND       PRES   REMARKS
LAKE TEXOMA      N/A     84  72  65 SE3         N/A
CADDO GRASSLND   N/A     81  73  78 CALM        N/A
PAT MAYSE LAKE   N/A     82  72  69 SE3         N/A
GREENVILLE       N/A     82  70  65 E5          N/A
CEDAR HILL       N/A     86  68  54 E1          N/A
ATHENS           N/A     82  70  65 E3          N/A
PALESTINE        N/A     81  73  78 E1          N/A
LAKE LIMESTONE   N/A     82  77  83 E3          N/A  HX  91
MCGREGOR         N/A     88  72  58 SE3         N/A  HX  94
TEMPLE           N/A     88  72  58 SE3         N/A  HX  94
$$

SUPPLEMENTAL OBSERVATIONS (WEST)

CITY           SKY/WX    TMP DP  RH WIND       PRES   REMARKS
MILLERS CREEK    N/A    N/A N/A N/A E10         N/A
POSSUM KINGDOM   N/A     90  66  45 E7          N/A  HX  92
LBJ GRASSLAND    N/A     84  68  58 E3          N/A
GRANBURY         N/A     91  66  43 E7          N/A  HX  94
COMANCHE         N/A     84  66  54 E7          N/A
HAMBY            N/A     90  66  45 SE2         N/A  HX  92
IVIE RESERVOIR   N/A     86  63  45 E6          N/A
COLORADO BEND    N/A     84  64  51 SE2         N/A
$$

SUPPLEMENTAL OBSERVATIONS (EAST)

CITY           SKY/WX    TMP DP  RH WIND       PRES   REMARKS
TEXARKANA        N/A     73  70  88 CALM        N/A
LINDEN           N/A     79  70  73 CALM        N/A
CADDO LAKE       N/A     75  72  88 CALM        N/A
LUFKIN           N/A     81  73  78 MISG        N/A
N SABINE NF      N/A     75  72  88 MISG        N/A
$$

SUPPLEMENTAL OBSERVATIONS ARE A COLLECTION OF AUTOMATED INSTRUMENTS
THAT ARE MAINTAINED BY A VARIETY OF FEDERAL AND STATE AGENCIES.
CERTAIN ELEMENTS...SUCH AS HUMIDITY VALUES AND SUSTAINED WIND
SPEEDS...MAY BE APPROXIMATED.



USA.gov is the U.S. government's official web portal to all federal, state and local government web resources and services.